Temperature
7 7 7 6 6 5 5 4 4 3 3 3 2 2 2 1 1 0 0 -0 -1 -1 -1 -1 -2 -2 -2 -2 -2 -2 -3 -3 -3 -3 -3 -3 -3 -3 -2 -2 -2 -2 -2
7 6 6 5 5 4 4 4 3 3 2 2 2 1 1 1 0 -0 -1 -1 -1 -2 -2 -2 -2 -3 -3 -3 -3 -3 -3 -3 -4 -4 -4 -3 -3 -3 -3 -3 -2 -2 -2
6 6 5 5 4 4 4 3 3 2 2 1 1 0 0 -0 -1 -1 -1 -2 -2 -2 -3 -3 -3 -3 -3 -3 -4 -4 -4 -4 -4 -4 -4 -4 -4 -4 -3 -3 -3 -3 -3
6 5 5 4 4 3 3 3 2 2 1 1 0 -0 -1 -1 -1 -2 -2 -2 -3 -3 -3 -3 -3 -4 -4 -4 -4 -4 -4 -4 -4 -4 -4 -4 -4 -4 -4 -4 -3 -3 -3
5 5 4 4 3 3 2 2 1 1 0 -0 -0 -1 -1 -2 -2 -2 -3 -3 -3 -3 -4 -4 -4 -4 -4 -4 -4 -4 -4 -4 -4 -4 -4 -4 -4 -4 -4 -4 -4 -4 -4
4 4 3 3 3 2 2 1 1 0 -0 -1 -1 -1 -2 -2 -2 -3 -3 -4 -4 -4 -4 -4 -4 -5 -5 -5 -5 -5 -5 -5 -5 -5 -5 -5 -5 -5 -5 -5 -5 -5 -4
4 3 3 2 2 2 1 1 0 -0 -1 -1 -1 -2 -2 -2 -3 -3 -4 -4 -4 -5 -5 -5 -5 -5 -5 -5 -5 -5 -5 -5 -5 -5 -5 -5 -5 -5 -5 -5 -5 -5 -5
3 3 2 2 1 1 0 0 -0 -1 -1 -2 -2 -2 -3 -3 -3 -4 -4 -5 -5 -5 -5 -5 -5 -5 -5 -5 -5 -5 -5 -5 -5 -5 -5 -5 -5 -5 -5 -5 -5 -5 -5
2 2 2 1 1 0 -0 -1 -1 -2 -2 -2 -3 -3 -3 -3 -4 -4 -5 -5 -5 -5 -5 -5 -6 -6 -6 -6 -6 -6 -6 -5 -5 -5 -5 -5 -5 -5 -5 -5 -5 -5 -5
2 1 1 0 -0 -0 -1 -1 -2 -2 -3 -3 -3 -3 -4 -4 -4 -5 -5 -6 -6 -6 -6 -6 -6 -6 -6 -6 -6 -6 -6 -6 -6 -5 -5 -5 -5 -5 -5 -6 -6 -5 -5
1 1 0 -0 -0 -1 -1 -2 -2 -3 -3 -3 -4 -4 -4 -4 -5 -5 -6 -6 -6 -6 -6 -6 -6 -6 -6 -6 -6 -6 -6 -6 -6 -6 -6 -6 -6 -6 -6 -6 -6 -6 -6
0 0 -0 -1 -1 -2 -2 -2 -3 -3 -4 -4 -4 -5 -5 -5 -5 -6 -6 -6 -6 -6 -6 -6 -6 -6 -6 -6 -6 -6 -6 -6 -6 -6 -7 -7 -6 -6 -6 -6 -6 -6 -6
-0 -1 -1 -1 -2 -2 -3 -3 -4 -4 -5 -5 -6 -6 -6 -6 -6 -6 -7 -7 -7 -7 -7 -7 -6 -6 -6 -6 -6 -7 -7 -7 -7 -7 -7 -7 -7 -7 -7 -6 -6 -6 -6
-1 -1 -2 -2 -2 -3 -3 -4 -5 -5 -5 -6 -6 -6 -6 -7 -7 -7 -7 -7 -7 -7 -7 -7 -7 -7 -7 -7 -7 -7 -7 -7 -8 -8 -8 -7 -7 -7 -7 -7 -7 -7 -7
-2 -2 -2 -3 -3 -4 -4 -5 -5 -6 -6 -6 -7 -7 -7 -7 -7 -7 -7 -7 -7 -7 -7 -7 -7 -7 -7 -7 -7 -8 -8 -8 -8 -8 -8 -8 -8 -8 -7 -7 -7 -7 -7
-2 -3 -3 -4 -4 -5 -5 -5 -5 -6 -6 -7 -7 -7 -7 -7 -7 -7 -7 -7 -7 -7 -7 -8 -8 -8 -8 -8 -8 -8 -8 -8 -8 -8 -8 -8 -8 -8 -8 -8 -8 -8 -8
-3 -3 -4 -4 -5 -5 -6 -6 -7 -6 -6 -7 -7 -7 -8 -8 -8 -8 -8 -8 -8 -8 -8 -8 -9 -9 -9 -9 -9 -9 -9 -9 -9 -9 -9 -9 -8 -8 -8 -8 -8 -8 -8
-4 -4 -5 -5 -6 -6 -6 -7 -7 -8 -8 -8 -7 -8 -8 -8 -8 -8 -8 -8 -8 -9 -9 -9 -9 -9 -9 -9 -9 -9 -9 -9 -9 -9 -9 -9 -9 -9 -9 -9 -8 -8 -8
-4 -5 -5 -6 -6 -7 -7 -8 -8 -8 -8 -8 -8 -8 -8 -8 -8 -8 -9 -9 -9 -9 -10 -10 -10 -10 -10 -9 -9 -9 -9 -9 -9 -9 -9 -9 -9 -9 -9 -9 -9 -9 -9
-5 -6 -6 -7 -7 -7 -8 -8 -8 -9 -9 -9 -9 -9 -9 -9 -9 -9 -9 -9 -10 -10 -10 -10 -10 -10 -10 -10 -10 -10 -10 -10 -9 -9 -9 -9 -9 -9 -9 -9 -9 -9 -9
-6 -6 -7 -7 -7 -8 -8 -9 -9 -9 -9 -9 -9 -9 -9 -9 -9 -10 -10 -10 -10 -10 -11 -11 -10 -10 -10 -10 -10 -10 -10 -10 -10 -10 -10 -10 -9 -9 -9 -9 -9 -9 -9
-6 -7 -7 -8 -8 -8 -9 -9 -9 -9 -10 -10 -10 -10 -10 -10 -10 -10 -10 -10 -11 -11 -11 -11 -11 -11 -11 -11 -11 -10 -10 -10 -10 -10 -10 -10 -10 -10 -10 -10 -9 -9 -9
-7 -8 -8 -8 -8 -9 -9 -9 -10 -10 -10 -10 -10 -10 -10 -10 -10 -11 -11 -11 -11 -11 -11 -11 -11 -11 -11 -11 -11 -11 -10 -10 -10 -10 -10 -10 -10 -10 -10 -10 -10 -10 -10
-8 -8 -8 -9 -9 -9 -10 -10 -10 -10 -11 -11 -11 -11 -11 -11 -11 -11 -11 -11 -11 -11 -11 -11 -11 -11 -11 -11 -11 -11 -10 -10 -10 -10 -10 -10 -10 -10 -10 -10 -10 -10 -10
-8 -9 -9 -9 -10 -10 -10 -11 -11 -11 -11 -11 -11 -11 -11 -11 -11 -12 -12 -12 -12 -12 -11 -11 -11 -11 -11 -11 -11 -11 -10 -10 -10 -10 -10 -10 -10 -10 -10 -10 -10 -10 -10
-9 -9 -10 -10 -10 -11 -11 -11 -11 -11 -11 -11 -12 -12 -12 -12 -12 -12 -12 -12 -12 -12 -12 -12 -11 -11 -11 -11 -11 -10 -10 -10 -10 -10 -10 -10 -10 -10 -10 -10 -10 -10 -10
Wind_Speed
3 2 2 3 3 4 4 6 7 7 7 8 8 9 9 9 9 9 9 10 11 11 10 10 11 10 9 8 8 8 9 10 17 13 7 7 9 12 13 14 17 16 19
3 3 3 4 4 5 6 7 7 8 8 8 9 9 10 10 10 10 11 11 11 12 12 11 12 11 11 9 8 9 10 10 14 19 11 8 10 10 11 12 12 14 13
3 3 3 4 5 7 8 8 8 8 9 9 9 10 11 11 11 11 11 12 12 12 12 12 12 11 12 10 10 11 10 12 11 15 15 10 9 9 10 11 13 11 13
3 3 5 6 7 8 8 8 8 9 9 10 10 10 11 11 11 12 12 12 12 12 12 12 12 12 12 12 12 12 12 12 12 13 14 12 9 8 8 9 11 9 11
3 4 6 7 7 8 8 9 9 9 10 10 10 11 11 10 11 12 11 11 11 12 12 11 12 15 19 17 15 11 11 11 11 12 13 12 10 7 7 7 11 10 10
4 6 6 7 7 8 8 9 9 9 10 10 10 11 11 12 20 25 21 12 11 11 12 11 12 15 19 24 26 25 21 16 12 12 13 13 12 9 9 9 11 12 11
4 6 7 7 8 9 9 9 9 10 9 10 11 11 12 14 24 26 26 17 12 10 11 11 12 13 19 12 19 24 22 25 24 17 15 15 13 11 11 12 12 13 13
5 6 7 8 8 9 8 9 10 9 9 10 11 12 12 15 24 26 27 16 11 11 11 12 12 12 13 15 13 14 14 14 17 14 13 14 14 13 13 14 15 14 13
6 7 8 8 8 9 9 10 10 9 10 10 11 12 12 15 23 26 26 11 10 11 11 12 13 12 21 25 17 14 14 13 18 23 24 23 25 25 20 11 10 11 12
7 8 8 8 9 10 10 11 9 9 11 11 11 11 12 13 21 25 25 10 11 11 10 11 18 20 23 25 16 13 15 13 12 14 15 17 15 16 21 13 10 11 11
7 8 8 9 9 10 10 9 10 10 11 11 13 12 11 14 19 23 25 13 11 12 11 10 10 22 26 26 23 14 18 17 12 11 10 9 9 9 9 9 9 10 11
7 8 9 9 9 10 10 10 10 10 11 12 12 12 10 11 16 20 25 24 22 14 12 10 12 24 26 26 20 19 24 20 8 8 8 9 8 8 8 8 9 10 10
8 9 10 10 9 9 10 11 10 9 10 11 11 12 12 9 11 23 25 26 26 17 13 21 24 27 25 17 18 22 18 9 8 9 9 9 8 8 7 7 7 8 8
9 10 9 10 10 9 9 9 9 10 10 11 12 12 12 10 9 9 11 14 18 16 14 18 24 23 18 16 15 12 8 8 9 9 9 8 7 6 7 6 6 6 6
9 10 10 9 10 10 9 9 11 10 12 14 11 11 13 14 15 24 20 13 11 13 15 11 8 8 7 7 8 8 7 7 8 7 8 8 8 7 7 5 5 5 6
9 9 8 8 9 9 10 12 16 18 24 25 24 22 17 22 28 28 28 27 27 26 18 9 9 9 9 9 9 8 7 8 8 7 7 8 8 7 7 6 6 6 6
10 10 9 8 9 10 10 11 14 16 20 23 24 26 25 26 27 27 27 26 25 23 11 9 10 10 10 10 9 9 9 8 7 7 8 8 8 7 7 7 6 6 6
10 12 12 9 9 10 10 11 12 14 15 12 16 23 25 25 26 26 26 22 13 12 8 9 10 10 10 10 9 9 9 8 7 7 8 7 7 7 7 7 6 6 6
10 8 9 9 9 10 10 11 11 13 14 14 12 14 20 22 24 24 21 10 11 11 9 10 10 10 10 10 10 9 9 9 9 8 8 8 7 7 7 7 6 9 7
9 16 16 11 9 10 10 11 12 12 13 13 13 12 11 13 12 12 9 9 10 10 10 10 10 10 10 10 10 9 9 9 9 8 8 7 7 7 7 7 6 6 6
9 12 18 14 10 10 11 12 12 12 13 13 12 14 21 14 11 11 10 10 9 10 11 11 10 10 10 9 9 10 10 9 9 8 8 7 7 7 6 7 7 6 6
9 9 9 10 11 11 12 11 12 13 13 14 13 15 23 13 10 11 11 11 10 9 10 10 10 10 9 10 10 10 10 10 9 8 8 8 7 7 7 7 7 6 6
9 11 11 11 11 16 15 11 11 12 13 13 14 13 12 11 11 11 12 11 10 10 10 10 11 11 10 10 10 10 11 10 9 9 9 8 8 8 7 8 8 8 7
9 11 12 12 11 11 12 12 12 13 13 13 13 13 12 11 12 13 12 11 11 11 10 10 11 14 16 13 11 10 10 11 10 10 11 11 10 9 8 8 8 9 8
10 11 11 11 11 12 12 13 13 13 13 13 13 13 12 12 12 12 12 11 12 12 13 12 11 12 15 16 15 13 17 21 20 13 10 10 11 10 10 10 9 9 9
10 11 11 11 11 11 12 13 13 14 13 13 13 12 12 13 13 12 12 11 12 12 13 12 13 15 17 15 17 20 23 23 22 22 13 10 11 10 10 10 11 10 10
Wind_Direction
204 217 239 267 278 284 283 283 284 285 287 288 288 288 289 288 285 283 281 283 280 278 276 275 272 270 269 266 262 263 265 268 281 286 266 256 251 258 268 268 266 267 270
207 219 245 267 280 285 284 284 283 283 283 283 285 287 287 287 284 281 283 284 280 280 277 275 275 276 270 267 265 266 268 266 274 285 283 270 258 256 260 262 267 268 262
207 227 260 275 280 280 281 282 283 282 285 286 286 285 285 285 283 280 278 278 276 274 273 272 273 273 273 270 267 270 270 272 269 277 283 276 269 264 263 264 264 264 266
216 241 263 270 272 274 277 280 280 281 283 284 283 282 283 284 284 281 279 276 273 272 271 269 269 267 268 270 272 269 270 271 272 275 280 280 272 260 259 266 271 261 263
231 254 264 270 274 277 279 280 281 281 282 281 284 285 284 288 286 285 284 278 274 275 274 270 268 274 278 282 282 276 273 274 276 279 282 284 281 272 265 265 274 274 266
242 260 270 276 279 280 281 282 283 283 282 282 283 285 286 291 299 304 303 291 282 280 281 276 275 281 284 288 289 290 288 284 283 280 281 279 279 273 271 271 274 276 276
256 269 276 278 281 282 285 287 285 284 282 284 282 283 283 287 299 304 304 303 291 284 281 281 286 285 292 284 285 287 285 283 282 280 278 278 278 275 274 273 269 268 269
267 275 278 281 282 284 285 284 284 283 283 285 285 284 283 289 301 306 307 303 289 281 277 276 276 277 278 283 275 273 270 271 273 274 268 269 268 267 261 266 270 270 266
273 277 280 280 283 285 286 285 285 287 288 286 286 285 285 291 300 305 305 294 288 283 279 276 278 275 282 289 288 282 280 276 278 278 277 277 277 280 279 277 271 272 273
272 275 278 278 279 282 283 284 284 286 288 290 289 285 284 285 296 304 305 296 290 287 282 275 283 285 287 290 287 282 282 281 276 278 279 280 279 280 282 275 270 273 275
273 277 279 278 278 280 281 282 286 290 291 291 291 288 283 285 296 302 304 302 291 290 289 284 277 288 290 290 290 285 284 289 283 279 280 276 271 266 263 258 252 257 265
277 280 282 282 285 291 286 288 287 289 293 293 294 294 288 285 294 299 303 303 302 298 294 288 283 290 291 291 293 291 293 299 293 286 281 278 275 272 267 261 258 254 253
282 282 285 286 283 283 284 289 292 290 291 294 294 296 296 288 290 301 303 303 302 301 292 292 295 296 297 295 292 294 297 293 288 285 281 278 271 269 270 270 265 260 260
282 285 286 288 289 285 284 285 288 289 289 291 294 295 297 295 289 288 288 294 298 298 294 293 296 294 291 287 290 291 281 273 278 277 277 276 276 272 272 268 269 271 271
283 286 287 285 286 290 286 281 285 277 281 291 291 291 296 298 296 302 304 301 299 294 302 297 291 288 279 274 274 273 270 272 278 273 276 279 279 276 273 264 262 261 261
288 288 287 288 289 290 293 295 290 290 295 296 297 297 296 296 302 305 307 308 309 309 310 303 298 293 289 286 284 281 276 273 272 271 274 277 278 275 273 268 260 255 260
281 287 289 288 290 291 293 295 300 301 297 297 298 299 299 301 304 307 308 310 310 313 307 296 292 289 287 285 280 278 278 275 272 271 274 274 274 273 274 270 261 257 256
280 288 293 287 287 288 289 289 292 296 301 299 298 298 300 303 306 307 308 312 308 305 287 288 288 287 287 285 280 277 279 278 273 269 269 268 267 269 271 269 262 255 256
284 284 286 285 284 284 287 289 290 291 293 295 296 297 300 304 305 303 306 300 296 295 291 288 285 285 286 285 281 278 275 276 274 270 268 265 263 263 265 265 261 263 260
284 292 299 294 289 290 291 291 292 291 292 293 293 295 300 302 299 298 296 289 288 289 290 288 286 283 283 282 280 278 275 273 271 267 264 263 260 258 259 261 258 257 255
286 291 297 297 289 289 289 289 289 289 291 291 290 293 299 301 297 295 295 292 288 289 289 288 286 284 281 280 279 276 272 271 267 264 262 260 257 257 254 256 255 252 253
286 286 287 288 289 289 290 287 288 289 291 291 293 296 299 297 291 290 290 289 286 284 284 285 284 282 278 277 278 278 275 272 267 263 260 258 256 255 253 252 251 248 248
284 288 290 289 289 293 297 292 291 291 292 293 294 295 295 292 290 289 289 288 288 287 285 282 283 283 279 276 274 273 273 272 268 263 261 261 257 254 249 247 246 248 247
286 288 290 292 293 293 293 294 292 292 292 293 294 293 291 290 290 290 290 288 288 288 285 282 280 280 280 280 277 272 268 267 265 262 255 254 254 251 248 246 244 243 243
290 290 291 292 293 294 294 294 294 294 294 295 294 293 292 291 291 291 290 288 288 288 286 284 282 282 280 278 277 276 276 277 277 270 256 250 248 242 242 243 243 242 238
294 293 293 293 292 292 293 295 295 294 293 293 293 292 292 292 291 290 290 288 289 289 288 287 281 279 280 281 278 278 281 281 279 276 266 253 243 240 237 239 238 237 237
Height
1527 1526 1525 1523 1521 1519 1516 1513 1509 1506 1502 1498 1494 1490 1486 1482 1478 1473 1469 1465 1461 1457 1454 1450 1446 1444 1440 1437 1435 1432 1428 1424 1415 1408 1410 1409 1407 1406 1405 1403 1402 1400 1398
1523 1522 1521 1518 1516 1513 1510 1507 1504 1500 1496 1492 1488 1483 1479 1474 1470 1465 1461 1456 1452 1448 1445 1441 1438 1435 1431 1428 1425 1422 1418 1415 1409 1400 1398 1398 1397 1396 1394 1392 1391 1389 1387
1519 1517 1516 1513 1511 1508 1504 1501 1497 1493 1489 1485 1481 1476 1471 1467 1462 1457 1452 1448 1444 1440 1437 1433 1429 1426 1422 1419 1415 1412 1408 1405 1401 1395 1389 1388 1387 1386 1384 1382 1380 1379 1377
1514 1512 1510 1508 1505 1502 1498 1495 1491 1487 1482 1478 1473 1469 1464 1459 1454 1449 1444 1439 1435 1431 1428 1424 1421 1417 1413 1410 1406 1402 1399 1395 1392 1387 1382 1379 1377 1376 1375 1373 1370 1369 1367
1508 1507 1504 1502 1499 1496 1492 1488 1484 1480 1475 1471 1465 1461 1456 1451 1446 1441 1436 1431 1426 1422 1418 1415 1412 1408 1404 1401 1398 1394 1391 1387 1383 1379 1375 1371 1369 1368 1367 1365 1362 1359 1357
1503 1501 1499 1496 1492 1489 1485 1481 1477 1472 1468 1463 1458 1452 1447 1443 1438 1433 1428 1423 1418 1414 1409 1405 1402 1398 1395 1392 1389 1386 1383 1380 1375 1372 1367 1364 1361 1360 1358 1357 1354 1351 1347
1498 1495 1492 1489 1486 1482 1478 1474 1469 1464 1459 1454 1449 1444 1438 1434 1429 1424 1420 1415 1409 1405 1400 1396 1392 1389 1386 1382 1378 1375 1372 1370 1368 1364 1359 1356 1353 1351 1349 1347 1345 1342 1339
1492 1489 1486 1483 1479 1475 1471 1466 1461 1456 1451 1445 1440 1435 1430 1425 1421 1416 1411 1405 1400 1395 1392 1388 1383 1379 1376 1373 1368 1364 1362 1359 1357 1354 1351 1347 1345 1343 1341 1338 1336 1333 1330
1486 1483 1480 1476 1472 1467 1463 1458 1453 1448 1442 1437 1431 1426 1421 1416 1412 1407 1402 1396 1391 1386 1382 1379 1375 1370 1367 1365 1361 1356 1352 1349 1348 1345 1342 1339 1337 1335 1333 1330 1327 1325 1321
1479 1476 1473 1469 1465 1460 1455 1450 1445 1439 1433 1428 1422 1418 1412 1407 1403 1398 1394 1388 1382 1377 1373 1369 1367 1363 1359 1357 1353 1348 1344 1340 1338 1334 1332 1329 1326 1324 1323 1322 1319 1317 1314
1473 1469 1466 1462 1457 1452 1447 1442 1437 1431 1425 1419 1413 1408 1404 1399 1394 1390 1385 1381 1375 1369 1365 1360 1357 1354 1351 1347 1344 1340 1336 1333 1329 1325 1322 1319 1316 1314 1312 1311 1310 1309 1307
1466 1462 1458 1454 1450 1445 1439 1433 1428 1422 1416 1410 1404 1398 1394 1390 1386 1381 1377 1373 1368 1363 1357 1352 1348 1345 1342 1338 1335 1331 1328 1325 1321 1317 1313 1310 1308 1305 1304 1302 1301 1300 1298
1458 1454 1450 1446 1442 1437 1431 1425 1419 1414 1408 1402 1396 1389 1384 1380 1376 1373 1368 1364 1359 1355 1349 1344 1340 1337 1333 1329 1326 1323 1320 1316 1312 1309 1305 1302 1300 1298 1296 1294 1292 1291 1290
1451 1447 1442 1437 1432 1428 1423 1417 1411 1406 1400 1394 1388 1382 1376 1371 1367 1363 1359 1354 1350 1345 1340 1335 1331 1327 1324 1320 1317 1314 1311 1308 1305 1301 1298 1295 1293 1291 1289 1287 1286 1284 1283
1443 1439 1434 1429 1424 1418 1413 1409 1403 1398 1394 1388 1382 1376 1370 1364 1360 1357 1353 1347 1342 1337 1332 1327 1322 1318 1315 1311 1308 1305 1303 1300 1297 1295 1292 1289 1286 1284 1282 1281 1280 1278 1277
1435 1431 1426 1421 1415 1410 1404 1398 1393 1390 1385 1380 1375 1370 1363 1358 1353 1348 1344 1339 1334 1330 1325 1319 1315 1311 1307 1304 1300 1297 1295 1293 1290 1288 1285 1282 1280 1278 1276 1275 1274 1273 1272
1428 1423 1418 1413 1407 1402 1396 1390 1382 1377 1374 1370 1366 1361 1356 1350 1345 1340 1335 1330 1326 1322 1317 1312 1307 1304 1300 1297 1293 1290 1287 1285 1283 1281 1278 1276 1274 1272 1270 1269 1268 1267 1266
1420 1415 1410 1405 1399 1394 1388 1383 1377 1369 1363 1357 1354 1351 1346 1342 1337 1332 1327 1322 1316 1313 1309 1304 1300 1296 1293 1289 1286 1283 1280 1278 1276 1273 1271 1269 1268 1266 1265 1263 1262 1261 1261
1412 1407 1402 1396 1391 1386 1380 1375 1369 1363 1357 1350 1344 1340 1337 1333 1328 1323 1319 1314 1309 1304 1300 1296 1293 1289 1285 1282 1279 1276 1273 1270 1268 1266 1264 1263 1261 1260 1259 1258 1257 1256 1256
1404 1399 1394 1388 1383 1377 1372 1366 1361 1355 1349 1343 1337 1332 1328 1323 1318 1313 1310 1306 1302 1297 1293 1289 1285 1281 1278 1275 1271 1269 1266 1263 1261 1259 1257 1256 1255 1254 1252 1252 1251 1250 1250
1395 1390 1385 1380 1374 1369 1363 1358 1352 1347 1341 1335 1330 1326 1322 1317 1311 1306 1302 1298 1293 1289 1285 1281 1277 1273 1270 1267 1264 1261 1258 1256 1254 1252 1250 1249 1248 1247 1246 1245 1245 1244 1244
1387 1381 1376 1371 1365 1360 1355 1349 1344 1338 1333 1327 1321 1317 1313 1308 1303 1298 1293 1289 1285 1281 1277 1273 1268 1265 1262 1259 1256 1253 1250 1248 1246 1244 1243 1242 1241 1240 1239 1239 1238 1238 1238
1378 1373 1367 1362 1357 1351 1346 1341 1335 1330 1324 1319 1314 1308 1303 1299 1294 1290 1285 1280 1276 1272 1268 1264 1260 1256 1253 1251 1248 1245 1242 1240 1238 1237 1235 1234 1233 1232 1232 1231 1231 1231 1231
1370 1364 1359 1353 1348 1342 1337 1332 1326 1321 1316 1310 1305 1300 1295 1290 1286 1281 1276 1271 1267 1263 1259 1255 1251 1247 1244 1242 1239 1236 1234 1231 1230 1228 1227 1226 1225 1224 1224 1224 1224 1224 1224
1361 1356 1350 1345 1339 1334 1328 1323 1318 1312 1307 1302 1297 1292 1287 1282 1277 1272 1267 1263 1258 1254 1249 1246 1242 1238 1235 1232 1229 1227 1224 1222 1221 1220 1218 1217 1216 1216 1215 1215 1215 1216 1216
1352 1347 1341 1336 1330 1325 1320 1314 1309 1303 1298 1293 1288 1283 1278 1273 1268 1263 1258 1254 1249 1245 1240 1236 1232 1229 1226 1223 1220 1217 1215 1213 1211 1210 1210 1208 1207 1207 1207 1206 1207 1207 1208